This is the latest recevied weather packets stored in our database for station/object PY3MO-13. If no packets are shown the sender has not sent any weather packets the latest 10 day(s).
| Time | Temp. | Humidity | Pressure | Rain* | Wind** | Luminosity | Snow |
|---|---|---|---|---|---|---|---|
| 1777709871 | 16.11° C | 99% | 1013.2 hPa | 0 mm | - | - | - |
| 1777709571 | 16.11° C | 99% | 1012.3 hPa | 0 mm | - | - | - |
| 1777709270 | 16.11° C | 99% | 1012.6 hPa | 0 mm | - | - | - |
| 1777708972 | 16.11° C | 99% | 1012.7 hPa | 0 mm | - | - | - |
| 1777708672 | 16.11° C | 99% | 1013 hPa | 0 mm | - | - | - |
| 1777708371 | 16.11° C | 99% | 1012.9 hPa | 0.25 mm | - | - | - |
| 1777708071 | 16.11° C | 99% | 1012.8 hPa | 0.51 mm | - | - | - |
| 1777707772 | 16.11° C | 99% | 1012.5 hPa | 0.51 mm | - | - | - |
| 1777707472 | 16.11° C | 99% | 1012.6 hPa | 0.76 mm | - | - | - |
| 1777707171 | 16.11° C | 99% | 1012.9 hPa | 0.76 mm | - | - | - |
| 1777706871 | 16.11° C | 99% | 1013 hPa | 0.76 mm | - | - | - |
| 1777706571 | 16.11° C | 99% | 1012.7 hPa | 1.02 mm | - | - | - |
| 1777706271 | 16.67° C | 99% | 1013.1 hPa | 1.27 mm | - | - | - |
| 1777705970 | 16.67° C | 99% | 1012.4 hPa | 1.78 mm | - | - | - |
| 1777705672 | 16.67° C | 99% | 1012.6 hPa | 2.29 mm | - | - | - |
| 1777705372 | 16.67° C | 99% | 1012.7 hPa | 2.54 mm | - | - | - |
| 1777705071 | 16.67° C | 99% | 1012.5 hPa | 2.79 mm | - | - | - |
| 1777704771 | 16.11° C | 99% | 1011.9 hPa | 3.56 mm | - | - | - |
| 1777704470 | 16.11° C | 99% | 1012.9 hPa | 3.56 mm | - | - | - |
| 1777704172 | 16.11° C | 99% | 1012.8 hPa | 4.06 mm | - | - | - |
| 1777703871 | 16.11° C | 99% | 1013.1 hPa | 4.32 mm | - | - | - |
| 1777703571 | 16.11° C | 99% | 1013 hPa | 5.33 mm | - | - | - |
| 1777703272 | 15.56° C | 99% | 1013 hPa | 5.59 mm | - | - | - |
| 1777702971 | 15.56° C | 99% | 1013.4 hPa | 5.59 mm | - | - | - |
| 1777702671 | 15.56° C | 99% | 1014.1 hPa | 5.84 mm | - | - | - |
* Rain latest hour (hover to see other rain measurements)
** Current wind speed in m/s (hover to see current wind gust speed)